Regional Weather Roundup
Issued by NWS

Home | Current Version | Previous Version | Graphics & Text | Print | Product List | Glossary On
Versions: 1 2 3 4 5 6 7 8 9 10 11 12 13 14 15 16 17 18 19 20 21 22 23 24 25 26 27 28 29 30 31 32 33 34 35 36 37 38 39 40 41 42 43 44 45 46 47 48 49 50
000
ASUS43 KLOT 311704
RWRIL

ILLINOIS REGIONAL WEATHER ROUNDUP
NATIONAL WEATHER SERVICE CHICAGO/ROMEOVILLE IL
1200 PM CDT WED AUG 31 2016

NOTE: "FAIR" INDICATES FEW OR NO CLOUDS BELOW 12,000 FEET WITH NO
SIGNIFICANT WEATHER AND/OR OBSTRUCTIONS TO VISIBILITY.

* THESE STATIONS ARE NOT UNDER NWS QUALITY CONTROL. THEY ALSO MAY NOT
  REPORT WEATHER SUCH AS PRECIPITATION OR FOG.

ILZ001-002-007-009-015-016-024-311800-
NORTHWEST ILLINOIS

CITY           SKY/WX    TMP DP  RH WIND       PRES   REMARKS
MOLINE         CLOUDY    77  66  68 N6        30.10F
STERLING*      MOSUNNY   78  67  68 N10       30.10F HX  80
SAVANNA*       CLOUDY    73  64  72 N8        30.13S
$$

ILZ003-004-008-010-011-017-018-311800-
NORTH CENTRAL ILLINOIS

CITY           SKY/WX    TMP DP  RH WIND       PRES   REMARKS
ROCKFORD       MOSUNNY   73  61  65 N10       30.13R
FREEPORT*      CLOUDY    71  64  77 N10       30.15S
ROCHELLE*      MOSUNNY   74  65  73 N8        30.11F
$$

ILZ005-006-012>014-019>023-311800-
NORTHEAST ILLINOIS

CITY           SKY/WX    TMP DP  RH WIND       PRES   REMARKS
CHICAGO-OHARE  CLOUDY    75  60  59 NE15      30.08R
CHICAGO-MIDWAY PTSUNNY   76  60  57 N15       30.07R
AURORA         MOSUNNY   77  64  64 N8        30.09R
LANSING*       CLOUDY    75  67  77 N13G21    30.06F
JOLIET*        SUNNY     79  66  64 N8        30.07S HX  81
WAUKEGAN       MOSUNNY   72  61  68 NE12G17   30.09R
DUPAGE AIRPORT MOSUNNY   77  63  61 N10       30.08S
KANKAKEE*      PTSUNNY   80  70  71 N6        30.06S HX  83
WHEELING       MOSUNNY   75  60  59 NE13G23   30.10R
MORRIS*        PTSUNNY   78  67  67 CALM      30.06S HX  80
ROMEOVILLE*    MOSUNNY   77  67  71 NE10      30.07F
NORTHERLY ISL    N/A     73  60  63 NW16        N/A
$$

LMZ740>746-311800-
SOUTHERN LAKE MICHIGAN

STATION/POSITION SKY/WX   TEMP    WIND        PRES    VSBY  WAVE
                          AIR SEA DIR/SP/G                  HT/PER
                          (F)     (DEG/KT/KT) (MB)    (MI)  (FT/S)
SOUTHERN BUOY              70 75   30/ 19/ 21 1017.3          4/ 6
WILMETTE HARBOR            71 71   40/ 16/ 21   N/A           5/ 5
HARRISON CRIB              72     360/ 20/ 21   N/A
BURNHAM HARBOR             73     340/ 16/ 18   N/A
CALUMET HARBOR             72     320/  8/ 16 1017.6R
BURNS HARBOR               72     350/ 11/ 15 1017.9R
MICHIGAN CITY              73     340/ 14/ 16   N/A
MICHIGAN CITY 6N           73 72  350/ 14/ 16   N/A           4/ 5
ST. JOSEPH                 74 75  350/ 14/ 17 1016.4R         3/ 5
$$

ILZ025>027-034>036-040-047-049-050-058-095>099-311800-
WEST-CENTRAL ILLINOIS

CITY           SKY/WX    TMP DP  RH WIND       PRES   REMARKS
QUINCY         CLOUDY    77  70  79 N8        30.09S
GALESBURG*     CLOUDY    76  68  78 N8        30.10F
MACOMB*        CLOUDY    75  69  81 N7        30.11S
JACKSONVILLE*  CLOUDY    79  73  80 NW3       30.07S HX  82
PITTSFIELD*    CLOUDY    78  72  81 CALM      30.09F HX  80
$$

ILZ028>032-037-038-041>044-048-051>054-059>061-311800-
CENTRAL ILLINOIS

CITY           SKY/WX    TMP DP  RH WIND       PRES   REMARKS
PONTIAC        CLOUDY    77  72  83 N7        30.08S
BLOOMINGTON    PTSUNNY   80  71  74 N9        30.07F HX  84
DECATUR        MOSUNNY   83  71  67 NW7       30.05F HX  87
PEORIA         PTSUNNY   79  70  74 VRB7      30.07S HX  82
LACON*         CLOUDY    73  67  80 NW7       30.08S
LINCOLN*       PTSUNNY   81  73  76 NW5       30.05F HX  86
SPRINGFIELD    CLOUDY    83  72  69 NW5       30.06F HX  88
TAYLORVILLE    MOSUNNY   83  71  68 NW3       30.05F HX  87
$$

ILZ033-039-045-046-055>057-062-063-311800-
EAST-CENTRAL ILLINOIS

CITY           SKY/WX    TMP DP  RH WIND       PRES   REMARKS
CHAMPAIGN      CLOUDY    81  71  71 N3        30.05F HX  85
RANTOUL*       CLOUDY    81  73  78 NW5       30.04F HX  86
MATTOON        MOSUNNY   82  70  66 NW7       30.03F HX  86
PARIS*         CLOUDY    82  73  74 CALM      30.04F HX  86
$$

ILZ079-100>102-311800-
SOUTHWEST ILLINOIS

CITY           SKY/WX    TMP DP  RH WIND       PRES   REMARKS
ALTON          PTSUNNY   81  73  78 CALM      30.06S HX  85
BELLEVILLE     CLOUDY    83  74  74 VRB6      30.04F HX  89
CAHOKIA*       PTSUNNY   83  72  69 VRB7      30.05F HX  88
SPARTA*        PTSUNNY   80  73  81 W3        30.06F HX  83
$$

ILZ064>066-069>071-074>076-080>082-084>086-088>090-092>094-311800-
SOUTH-CENTRAL ILLINOIS

CITY           SKY/WX    TMP DP  RH WIND       PRES   REMARKS
CARBONDALE     MOSUNNY   82  71  69 W6        30.04F HX  86
EFFINGHAM*     MOSUNNY   83  74  72 NW10      30.05F HX  90
MARION         MOSUNNY   84  73  70 N6        30.04F HX  91
MT. VERNON     PTSUNNY   82  70  65 N6        30.04F HX  86
CENTRALIA*     PTSUNNY   82  76  79 N6        30.04S HX  90
SALEM*         MOSUNNY   83  74  74 NW5       30.04F HX  89
METROPOLIS*    SUNNY     87  73  64 N5        30.02F HX  94
$$

ILZ067-068-072-073-078-083-087-091-311800-
SOUTHEAST ILLINOIS

CITY           SKY/WX    TMP DP  RH WIND       PRES   REMARKS
LAWRENCEVILLE  PTSUNNY   83  73  72 NW8       30.02F HX  89
FLORA*         PTSUNNY   82  75  79 NW5       30.03F HX  87
FAIRFIELD*     PTSUNNY   81  73  77 NW3       30.02F HX  85
HARRISBURG*    SUNNY     85  74  69 NW5       30.03F HX  92
ROBINSON*      MOSUNNY   82  74  75 NW7       30.02F HX  88
CARMI*         SUNNY     85  75  71 NW8       30.01F HX  93
$$

ABBREVIATIONS USED IN REMARKS
   TC - TEMPERATURE IN CELSIUS
  WCI - WIND CHILL INDEX
   HX - HEAT INDEX
  VSB - VISIBILITY
$$





USA.gov is the U.S. government's official web portal to all federal, state and local government web resources and services.